{"data":{"norad_id":67525,"intl_designator":"2026-013D","name":"HULIANWANG DIGUI-149","alt_names":[],"object_type":"PAYLOAD","status":"ACTIVE","operator":null,"country":"PRC","launch_date":"2026-01-19","launch_site_code":"WSC","launch_vehicle":null,"mission":null,"orbit_class":"UNKNOWN","rcs_meters":null,"size_class":null,"mass_kg":null,"dimensions":null,"purposes":[],"wikipedia_slug":null,"has_3d_model":false,"image_url":null,"decayed_at":null,"tle_current":{"epoch":"2026-05-25T03:05:52.084320Z","epoch_age_seconds":64671,"freshness":"FRESH","line1":"1 67525U 26013D   26145.12907505 -.00000096  00000+0  60722-4 0  9990","line2":"2 67525  50.0086  78.3728 0001074  33.8205 326.2735 13.29327299 16983","mean_motion":13.29327299,"eccentricity":0.0001074,"inclination_deg":50.0086,"raan_deg":78.3728,"arg_perigee_deg":33.8205,"mean_anomaly_deg":326.2735,"bstar":6.0722e-5,"rev_number":1698,"period_min":108.32546665394,"perigee_km":1148.4932211318,"apogee_km":1150.1101149577,"semimajor_km":7527.4386680448,"source":"CELESTRAK","updated_at":"2026-05-25T13:38:07.050070Z"}}}